Location: *
(31.2983°S, 151.4094°E)
Time: 07:51:51
(UTC+00:00)

Okean O Rocket - Pass Details

Date: 25 August 2019
Orbit: 623 x 644 km, 98.2° (Epoch: 21 September)

Event Time Altitude Azimuth Distance (km) Brightness Sun altitude
Rises 19:23:07 0° 342° (NNW) 2,939 4.9 -12.6°
Reaches altitude 10° 19:25:46 10° 325° (NW) 2,041 3.9 -12.0°
Maximum altitude 19:29:08 21° 276° (W) 1,457 2.9 -11.3°
Drops below altitude 10° 19:32:32 10° 227° (SW) 2,064 3.8 -10.6°
Sets 19:35:15 0° 210° (SSW) 2,982 4.7 -10.0°
